Time,TemperatureF,DewpointF,PressureIn,WindDirection,WindDirectionDegrees,WindSpeedMPH,WindSpeedGustMPH,Humidity,HourlyPrecipIn,Conditions,Clouds,dailyrainin,SoftwareType,DateUTC
2013-06-25 00:10:00,53.0,50.0,-100.00,NW,310,5.0,8.0,89,-99.99,,,-99.99,,2013-06-25 07:10:00,
2013-06-25 02:10:00,50.0,47.0,-100.00,North,360,2.0,6.0,89,-99.99,,,-99.99,,2013-06-25 09:10:00,
2013-06-25 02:12:00,52.0,49.0,-100.00,NW,315,5.0,7.0,89,-99.99,,,-99.99,,2013-06-25 09:12:00,
2013-06-25 05:10:00,51.0,48.0,-100.00,NNW,335,2.0,6.0,89,-99.99,,,-99.99,,2013-06-25 12:10:00,
2013-06-25 07:10:00,52.0,50.0,-100.00,ESE,105,0.0,3.0,92,-99.99,,,-99.99,,2013-06-25 14:10:00,
2013-06-25 09:12:00,57.0,49.0,-100.00,North,5,1.0,3.0,74,-99.99,,,-99.99,,2013-06-25 16:12:00,
2013-06-25 09:20:00,58.0,48.0,-100.00,WSW,245,1.0,2.0,69,-99.99,,,-99.99,,2013-06-25 16:20:00,
2013-06-25 10:10:00,58.0,51.0,-100.00,SSW,195,1.0,2.0,77,-99.99,,,-99.99,,2013-06-25 17:10:00,
2013-06-25 10:11:00,58.0,48.0,-100.00,WSW,245,1.0,2.0,69,-99.99,,,-99.99,,2013-06-25 17:11:00,
2013-06-25 12:12:00,63.0,50.0,-100.00,ESE,115,1.0,3.0,62,-99.99,,,-99.99,,2013-06-25 19:12:00,
2013-06-25 13:10:00,62.0,53.0,-100.00,ESE,120,3.0,10.0,72,-99.99,,,-99.99,,2013-06-25 20:10:00,
2013-06-25 15:10:00,65.0,52.0,-100.00,SSE,150,10.0,14.0,62,-99.99,,,-99.99,,2013-06-25 22:10:00,
2013-06-25 15:11:00,65.0,51.0,-100.00,SE,135,9.0,15.0,60,-99.99,,,-99.99,,2013-06-25 22:11:00,
2013-06-25 18:10:00,67.0,52.0,-100.00,NW,305,1.0,2.0,58,-99.99,,,-99.99,,2013-06-26 01:10:00,
2013-06-25 19:02:00,67.0,52.0,-100.00,NW,305,1.0,2.0,58,-99.99,,,-99.99,,2013-06-26 02:02:00,
2013-06-25 20:10:00,63.0,56.0,-100.00,SSW,200,2.0,3.0,77,-99.99,,,-99.99,,2013-06-26 03:10:00,
2013-06-25 20:11:00,65.0,54.0,-100.00,SSE,150,6.0,8.0,67,-99.99,,,-99.99,,2013-06-26 03:11:00,
2013-06-25 22:11:00,61.0,56.0,-100.00,SW,235,2.0,2.0,83,-99.99,,,-99.99,,2013-06-26 05:11:00,
2013-06-25 22:20:00,59.0,55.0,-100.00,WNW,300,1.0,5.0,86,-99.99,,,-99.99,,2013-06-26 05:20:00,
2013-06-25 23:10:00,58.0,54.0,-100.00,West,265,1.0,6.0,86,-99.99,,,-99.99,,2013-06-26 06:10:00,
2013-06-25 23:11:00,59.0,55.0,-100.00,WNW,300,1.0,5.0,86,-99.99,,,-99.99,,2013-06-26 06:11:00,